Location: ??
(34.9170°N, 135.5016°E)
Time: 16:43:44
(UTC+00:00)

Explorer 7 - All Passes

Search period start: 26 February 2021 00:00
Search period end: 08 March 2021 00:00
Orbit: 484 x 677 km, 50.3° (Epoch: 25 February)

Date Brightness Start Highest point End Pass type
(mag) Time Alt. Az. Time Alt. Az. Time Alt. Az.
26 Feb - 04:40:09 10° SSE 04:42:27 14° SE 04:44:41 10° E daylight
26 Feb - 06:18:01 10° SW 06:22:35 82° NW 06:26:53 10° NE daylight
26 Feb - 08:00:33 10° WNW 08:03:34 18° NNW 08:06:28 10° NNE daylight
26 Feb - 11:25:27 10° NNW 11:27:28 14° NNE 11:29:27 10° NE visible
26 Feb - 13:04:50 10° NW 13:08:38 58° NE 13:12:19 10° ESE night (unlit)
26 Feb - 14:46:39 10° W 14:48:41 14° SW 14:50:40 10° SSW night (unlit)
27 Feb - 04:43:07 10° S 04:46:48 24° SE 04:50:21 10° ENE daylight
27 Feb - 06:22:43 10° WSW 06:27:09 50° NW 06:31:19 10° NE daylight
27 Feb - 08:06:06 10° NW 08:08:24 14° NNW 08:10:38 10° NNE daylight
27 Feb - 11:29:32 10° NNW 11:32:18 18° NNE 11:35:00 10° ENE visible
27 Feb - 13:09:20 10° NW 13:13:10 78° SW 13:16:54 10° SE night (unlit)
28 Feb - 04:46:51 10° SSW 04:51:12 40° SE 04:55:21 10° ENE daylight
28 Feb - 06:27:40 10° W 06:31:47 33° NNW 06:35:41 10° NNE daylight
28 Feb - 08:11:52 10° NNW 08:13:18 11° NNW 08:14:43 10° N daylight
28 Feb - 11:33:44 10° NNW 11:37:04 26° NNE 11:40:17 10° E visible
28 Feb - 13:14:01 10° WNW 13:17:38 40° SW 13:21:09 10° SSE night (unlit)
01 Mar - 04:51:01 10° SW 04:55:40 69° SE 05:00:03 10° NE daylight
01 Mar - 06:32:51 10° W 06:36:29 23° NNW 06:39:58 10° NNE daylight
01 Mar - 09:58:46 10° N 10:00:21 12° NNE 10:01:54 10° NE visible
01 Mar - 11:38:02 10° NW 11:41:46 39° NE 11:45:20 10° ESE visible
01 Mar - 13:19:00 10° WNW 13:22:00 22° SW 13:24:56 10° S night (unlit)
02 Mar - 03:17:01 10° SSE 03:19:58 16° SE 03:22:51 10° E daylight
02 Mar - 04:55:30 10° SW 05:00:10 73° NW 05:04:36 10° NE daylight
02 Mar - 06:38:14 10° WNW 06:41:16 18° NNW 06:44:12 10° NNE daylight
02 Mar - 10:02:49 10° NNW 10:05:14 15° NNE 10:07:35 10° ENE visible
02 Mar - 11:42:25 10° NW 11:46:21 68° NE 11:50:07 10° ESE visible
02 Mar - 13:24:49 10° WSW 13:26:19 12° SW 13:27:48 10° SSW night (unlit)
03 Mar - 03:20:18 10° S 03:24:20 28° SE 03:28:14 10° ENE daylight
03 Mar - 05:00:16 10° WSW 05:04:45 45° NW 05:09:01 10° NE daylight
03 Mar - 06:43:47 10° NW 06:46:07 14° NNW 06:48:24 10° NNE daylight
03 Mar - 10:06:59 10° NNW 10:10:04 20° NNE 10:13:01 10° ENE visible
03 Mar - 11:46:58 10° NW 11:50:52 66° SW 11:54:36 10° SE visible
04 Mar - 03:24:10 10° SSW 03:28:45 47° SE 03:33:07 10° ENE daylight
04 Mar - 05:05:16 10° W 05:09:25 31° NNW 05:13:21 10° NNE daylight
04 Mar - 06:49:28 10° NNW 06:51:01 12° NNW 06:52:34 10° N daylight
04 Mar - 08:32:00 10° N 08:33:11 11° N 08:34:21 10° NNE daylight
04 Mar - 10:11:14 10° NNW 10:14:49 29° NNE 10:18:14 10° E visible
04 Mar - 11:51:42 10° WNW 11:55:18 35° SW 11:58:45 10° SSE visible
05 Mar - 01:51:51 10° SE 01:53:10 11° SE 01:54:29 10° ESE daylight
05 Mar - 03:28:25 10° SW 03:33:13 79° SE 03:37:46 10° NE daylight
05 Mar - 05:10:29 10° WNW 05:14:08 22° NNW 05:17:39 10° NNE daylight
05 Mar - 06:55:13 10° NNW 06:55:59 10° N 06:56:44 10° N daylight
05 Mar - 08:36:02 10° NNW 08:38:06 13° NNE 08:40:07 10° NE daylight
05 Mar - 10:15:33 10° NW 10:19:29 46° NE 10:23:11 10° ESE visible
05 Mar - 11:56:48 10° W 11:59:38 19° SW 12:02:24 10° S visible
06 Mar - 01:54:02 10° S 01:57:29 20° SE 02:00:50 10° E daylight
06 Mar - 03:32:59 10° WSW 03:37:44 65° NW 03:42:16 10° NE daylight
06 Mar - 05:15:53 10° WNW 05:18:56 17° NNW 05:21:53 10° NNE daylight
06 Mar - 07:00:41 10° N 07:00:58 10° N 07:01:15 10° N daylight
06 Mar - 08:40:11 10° NNW 08:42:59 17° NNE 08:45:40 10° ENE daylight
06 Mar - 10:19:58 10° NW 10:24:03 80° NE 10:27:53 10° SE visible
06 Mar - 12:03:19 10° WSW 12:03:55 10° SW 12:04:31 10° SW visible
07 Mar - 01:57:31 10° SSW 02:01:50 32° SE 02:06:00 10° ENE daylight
07 Mar - 03:37:48 10° WSW 03:42:20 42° NW 03:46:40 10° NE daylight
07 Mar - 05:21:25 10° NW 05:23:48 14° NNW 05:26:07 10° NNE daylight
07 Mar - 07:04:57 10° N 07:05:57 11° N 07:06:55 10° NNE daylight
07 Mar - 08:44:24 10° NNW 08:47:47 23° NNE 08:51:00 10° E daylight
07 Mar - 10:24:33 10° WNW 10:28:32 56° SW 10:32:17 10° SE visible
